Home   Weather   Odense   Past weeks

Flag for Denmark Past Weather in Odense, Denmark — Yesterday and Last 2 Weeks

Now
57 °F

Passing clouds.


Feels Like: 57 °F
Forecast: 50 / 67 °F
Wind: No wind

Location: Soenderborg Lufthavn

Current Time: Sep 26, 2016 at 4:02:36 AM

Latest Report: Sep 26, 2016 at 3:20 AM


Visibility: N/A

Pressure: 30.09 "Hg

Humidity: 88%

Dew Point: 54 °F

Location of OdenseLocation

Past Weather in Odense — Graph

°F

Odense Temperature Yesterday

Maximum temperature yesterday: 68 °F (at 12:50 PM)
Minimum temperature yesterday: 55 °F (at 7:20 AM)
Average temperature yesterday: 62 °F

High & Low Weather Summary for the Past Weeks

 TemperatureHumidityPressure
High79 °F (Sep 13, 2:20 PM)94% (Sep 12, 1:50 AM)30.21 "Hg (Sep 12, 1:50 AM)
Low52 °F (Sep 20, 5:20 AM)47% (Sep 16, 2:20 PM)29.89 "Hg (Sep 16, 11:50 AM)
Average64 °F77%30.09 "Hg
* Reported Sep 11 2:20 AM — Sep 26 2:50 AM, Odense, Weather by CustomWeather, © 2016

Note: Actual official high and low records may vary slightly from our data, if they occured in-between our weather recording intervals... More about our weather records

Advertising

Odense Weather History for the Previous 24 Hours

Scroll right to see more
 ConditionsComfort  
Time TempWeatherWind HumidityBarometerVisibility
2:50 AM
Mon, Sep 26
57 °FCool.3 mph88%30.07 "HgN/A
2:20 AM57 °FPassing clouds.1 mph88%30.07 "HgN/A
1:50 AM57 °FCool.2 mph88%30.07 "HgN/A
1:20 AM61 °FCool.3 mph83%30.07 "HgN/A
12:50 AM61 °FCool.5 mph83%30.07 "HgN/A
12:20 AM61 °FCool.7 mph83%30.07 "HgN/A
11:50 PM
Sun, Sep 25
63 °FMild.8 mph77%30.04 "HgN/A
11:20 PM61 °FCool.9 mph83%30.04 "HgN/A
10:50 PM61 °FCool.8 mph77%30.04 "HgN/A
10:20 PM63 °FMild.8 mph77%30.04 "HgN/A
9:50 PM61 °FCool.8 mph83%30.04 "HgN/A
9:20 PM61 °FCool.8 mph88%30.04 "HgN/A
8:50 PM61 °FCool.9 mph88%30.04 "HgN/A
8:20 PM63 °FMild.9 mph83%30.04 "HgN/A
7:50 PM63 °FMild.9 mph83%30.04 "HgN/A
7:20 PM63 °FClear.9 mph83%30.04 "Hg10 mi
6:50 PM64 °FSunny.12 mph78%30.04 "Hg10 mi
6:20 PM66 °FSunny.12 mph73%30.04 "Hg10 mi
5:50 PM66 °FSunny.15 mph73%30.04 "Hg10 mi
5:20 PM68 °FSunny.16 mph64%30.04 "Hg10 mi
4:50 PM68 °FSunny.17 mph64%30.04 "Hg10 mi
4:20 PM68 °FSunny.16 mph64%30.04 "Hg10 mi
3:50 PM68 °FSunny.18 mph64%30.04 "Hg10 mi
3:20 PM68 °FSunny.17 mph64%30.04 "Hg10 mi
2:50 PM68 °FSunny.16 mph69%30.04 "Hg10 mi
1:50 PM68 °FSunny.15 mph69%30.07 "Hg10 mi
1:20 PM68 °FSunny.14 mph64%30.07 "Hg10 mi
12:50 PM68 °FSunny.14 mph64%30.07 "Hg10 mi
11:50 AM66 °FSunny.12 mph68%30.09 "Hg10 mi
10:50 AM64 °FSunny.13 mph73%30.09 "Hg10 mi
10:20 AM64 °FSunny.10 mph68%30.09 "Hg10 mi
9:50 AM63 °FSunny.9 mph73%30.09 "Hg10 mi
9:20 AM61 °FCool.8 mph77%30.09 "HgN/A
8:50 AM59 °FCool.6 mph82%30.09 "HgN/A
8:20 AM57 °FCool.7 mph82%30.09 "HgN/A
7:50 AM55 °FCool.6 mph82%30.09 "HgN/A
7:20 AM55 °FCool.7 mph82%30.09 "HgN/A
6:50 AM57 °FCool.6 mph77%30.09 "HgN/A
6:20 AM57 °FCool.6 mph77%30.09 "HgN/A
5:50 AM57 °FCool.2 mph77%30.12 "HgN/A
5:20 AM57 °FCool.5 mph82%30.12 "HgN/A
4:50 AM57 °FCool.5 mph82%30.12 "HgN/A
4:20 AM57 °FCool.5 mph82%30.12 "HgN/A
Weather by CustomWeather, © 2016

See weather overviewHow to use our weather pages